This is the latest recevied weather packets stored in our database for station/object KK7KHO. If no packets are shown the sender has not sent any weather packets the latest 10 day(s).
| Time | Temp. | Humidity | Pressure | Rain* | Wind** | Luminosity | Snow |
|---|---|---|---|---|---|---|---|
| 1777306323 | 10° C | 87% | 1015.2 hPa | 0 mm | - | 74 W/m² | - |
| 1777305715 | 10° C | 87% | 1015.2 hPa | 0 mm | - | 63 W/m² | - |
| 1777305105 | 10° C | 87% | 1015.3 hPa | 0 mm | - | 53 W/m² | - |
| 1777304196 | 10° C | 88% | 1015.1 hPa | 0 mm | - | 43 W/m² | - |
| 1777303892 | 10° C | 88% | 1015 hPa | 0 mm | - | 45 W/m² | - |
| 1777303589 | 10° C | 88% | 1015.1 hPa | 0 mm | - | 51 W/m² | - |
| 1777303287 | 10° C | 88% | 1015 hPa | 0 mm | - | 48 W/m² | - |
| 1777302077 | 9.44° C | 89% | 1014.8 hPa | 0 mm | - | 34 W/m² | - |
| 1777301472 | 9.44° C | 90% | 1014.8 hPa | 0 mm | - | 26 W/m² | - |
| 1777300564 | 9.44° C | 90% | 1014.7 hPa | 0 mm | - | 27 W/m² | - |
| 1777300261 | 9.44° C | 90% | 1014.8 hPa | 0 mm | - | 29 W/m² | - |
| 1777299956 | 9.44° C | 91% | 1014.5 hPa | 0 mm | - | 26 W/m² | - |
| 1777299653 | 9.44° C | 91% | 1014.5 hPa | 0 mm | - | 21 W/m² | - |
| 1777299352 | 8.89° C | 91% | 1014.6 hPa | 0 mm | - | 17 W/m² | - |
| 1777299049 | 8.89° C | 91% | 1014.4 hPa | 0 mm | - | 17 W/m² | - |
| 1777298746 | 8.89° C | 92% | 1014.3 hPa | 0 mm | - | 15 W/m² | - |
| 1777297532 | 8.89° C | 93% | 1014.4 hPa | 0 mm | - | 5 W/m² | - |
| 1777296925 | 8.33° C | 93% | 1014.1 hPa | 0 mm | - | 5 W/m² | - |
| 1777296621 | 8.33° C | 93% | 1014.2 hPa | 0 mm | - | 5 W/m² | - |
| 1777295988 | 8.33° C | 93% | 1013.9 hPa | 0 mm | - | 3 W/m² | - |
| 1777295685 | 8.33° C | 93% | 1013.9 hPa | 0 mm | - | 2 W/m² | - |
| 1777295383 | 8.33° C | 92% | 1013.9 hPa | 0 mm | - | 2 W/m² | - |
| 1777295080 | 8.33° C | 92% | 1013.7 hPa | 0 mm | - | 2 W/m² | - |
| 1777294777 | 8.33° C | 92% | 1013.7 hPa | 0 mm | - | 1 W/m² | - |
| 1777294169 | 8.89° C | 92% | 1013.8 hPa | 0 mm | - | 0 W/m² | - |
* Rain latest hour (hover to see other rain measurements)
** Current wind speed in m/s (hover to see current wind gust speed)